Showing default

LES 6, 3431

Orbit data source: Space-Track

LES 6, 3431 is a payload satellite owned by SAMSO (US) in GEO that was launched on Thu, 26 Sep 1968 UTC via a TITAN IIIC launch vehicle from the Air Force Eastern Test Range (AFETR). Payload-class satellites include a variety of spacecraft equipped with specific instruments for various scientific and technological missions. These include communications satellites like Starlink; space stations such as the ISS; scientific satellites like the Hubble; Earth observation satellites from companies like Planet Labs, Umbra, and HawkEye 360; GPS; miniature CubeSats for education and research; and military/defense satellites.

Loading next visibility...
Identifier
3431, 1968-081D
Orbit
GEO
Country
Flag of USUS
Related business
Manufacturer
MIT-LL
Mission
Non-operational spacecraft
Bus & Motor
LES, Unknown motor
Mass
169 kg wet, ~149 kg dry
Launch date (UTC)
1968-09-26 (57 years ago)
Launch vehicle
TITAN IIIC
Launch site
Air Force Eastern Test Range (AFETR)
Object type
Payload
Rocket body
Debris
Shape & HBR
Unknown
Radar Cross Section
Large (>1 m²)

Expand to show TLE details & history
Last TLE update: 18 hours ago

TLE from 18 hours ago
0 LES 6
1 03431U 68081D   25347.60277683  .00000139  00000-0  00000-0 0  9997
2 03431   1.2437  28.1369 0009461 295.0713 190.1771  1.00243971118920
Epoch: 2025-12-13T14:27Z
TLE epoch observation values (Epoch: 2025-12-13T14:27:59.918Z)
Latitude
1.01725°
Longitude
-146.16156°
Altitude
35,832.897 km
Speed
3.072 km/s
True Right ascension
10h 13m 27s
True Declination
1° 00' 58"
Sunlit
Object was in daylight at epoch
Visualization orbit readout
Latitude
Unknown
Longitude
Unknown
Altitude
Unknown
Speed
Unknown
Apparent Right ascension
Unknown
Apparent Declination
Unknown
Sunlit
N/A
Visualization observer readout
Local Sidereal Time
06:51:10
Azimuth
Unknown
Elevation
Unknown
Doppler factor
Unknown
Orbital elements
Apogee altitude
35,835.364 km
Perigee altitude
35,755.563 km
Semi-major axis
42,173.6 km
Eccentricity
0.00095
Inclination
1.2437°
RAAN
28.1369°
Arg. of periapsis
295.0713°
True anomaly
190.15797°
Mean anomaly
190.1771°
Eccentric anomaly
190.16753°
Mean motion
0.2506 °/min
Orbital period
1,436.55 mins
BSTAR
0
Loading maneuver chart data...
Computing Atmospheric mass density...

Documentation

Showing up to 5 results
|